Regional Weather Roundup
Issued by NWS Pendleton, OR

Home | Current Version | Previous Version | Text Only | Print | Product List | Glossary On
Versions: 1 2 3 4 5 6 7 8 9 10 11 12 13 14 15 16 17 18 19 20 21 22 23 24 25 26 27 28 29 30 31 32 33 34 35 36 37 38 39 40 41 42 43 44 45 46 47 48 49 50
000
ASUS46 KPDT 271425
RWRPDT
PENDLETON REGIONAL WEATHER ROUNDUP
NATIONAL WEATHER SERVICE PENDLETON OREGON
700 AM PDT WED AUG 27 2014

NOTE: FAIR INDICATES FEW OR NO CLOUDS BELOW 12,000 FEET WITH NO
SIGNIFICANT WEATHER AND/OR OBSTRUCTIONS TO VISIBILITY.

# INDICATES UNOFFICIAL STATION AND DATA

WAZ520-271510-
EAST SLOPES OF WASHINGTON CASCADES

CITY            SKY/WX      TMP DP  RH  WIND    PRES   REMARKS
#CLE ELUM HS    N/A         54  51  90  CALM    29.99R
#CLE ELUM 2NW   N/A         56  52  86  CALM    N/A
#CLE ELUM LAKE  N/A         62  53  72  N1      29.91R
#CLIFFDEL 2NW   N/A         52  49  89  S1      N/A
#GLENWOOD       N/A         48  47  96  CALM    29.99R
#MANASTASH CYN  N/A         55  49  80  CALM    30.04R
#NELSON         N/A         55  51  86  CALM    29.96S
#NILE           N/A         53  50  89  CALM    29.28S
#RONALD 2NW     N/A         60  53  78  CALM    29.94R
#TEANAWAY 4NE   N/A         54  52  93  CALM    N/A
#TROUT LAKE 1NE N/A         54  51  90  CALM    29.97R
$$

WAZ521-271510-
SIMCOE HIGHLANDS

CITY            SKY/WX      TMP DP  RH  WIND    PRES   REMARKS
#BICKLETON HS   N/A         63  42  46  CALM    30.12R
#CENTERVILLE 4W N/A         63  51  65  N6      29.80R
#CENTERVILLE 1SWN/A         51  38  61  CALM    29.95R
#GOLDENDALE 1NE N/A         56  40  55  N5      N/A
#GOLDENDALE 1S  N/A         54  43  66  CALM    30.01R
#GOLDENDALE 5WNWN/A         60  49  67  CALM    29.96R
#GOODNOE HILLS  N/A         69  52  55  W3      29.96R
#LYLE 6NE       N/A         62  50  65  CALM    29.93R
$$

WAZ026-271510-
KITTITAS VALLEY

CITY            SKY/WX      TMP DP  RH  WIND    PRES   REMARKS
ELLENSBURG AP   SUNNY       60  52  75  E5      30.03R
#ELLENSBURG CWU N/A         58  53  83  CALM    29.92R
#ELLENSBURG 3NE N/A         57  53  86  CALM    30.03R
#ELLENSBURG     N/A         62  57  84  CALM    N/A
#ELLENSBURG 1E  N/A         54  49  83  CALM    N/A
#KITTITAS 3S    N/A         52  50  93  CALM    29.96R
#THORP 6N       N/A         59  53  80  N3      29.95R
$$

WAZ027-271510-
YAKIMA VALLEY

CITY            SKY/WX      TMP DP  RH  WIND    PRES   REMARKS
SUNNYSIDE AP    SUNNY       54  52  93  CALM    29.99R
YAKIMA AIRPORT  SUNNY       58  54  87  W6      30.01R
YAKIMA-VAGABOND SUNNY       61  51  70  E3      30.03R
#COWICHE 1N     N/A         66  54  65  NW5     30.19R
#DONALD 2NE     N/A         68  52  57  S1      30.32R
#GRANDVIEW      N/A         61  52  72  CALM    29.97R
#MABTON         N/A         58  54  87  CALM    29.98R
#MOXEE 2E       N/A         62  45  54  CALM    29.95R
#NACHES 2SW     N/A         66  55  68  W6      30.04R
#OUTLOOK DOT    N/A         N/A N/A N/A NE5     N/A
#SELAH 8E       N/A         61  44  53  E1      N/A
#TERRACE HTS    N/A         58  52  80  CALM    29.92R
#TOPPENISH      N/A         60  54  81  CALM    29.88R
#WAPATO 4NE     N/A         68  52  57  S1      30.32R
#WEST VALLEY    N/A         59  53  80  CALM    29.94R
#W YAKIMA       N/A         67  55  65  N3      29.94R
#WHITE SWAN 5E  N/A         55  52  90  NW1     29.96R
#WILEY CITY 3W  N/A         59  53  80  CALM    30.00R
$$

WAZ028-271510-
LOWER COLUMBIA BASIN...WASHINGTON

CITY            SKY/WX      TMP DP  RH  WIND    PRES   REMARKS
HANFORD         SUNNY       62  51  67  SE2     29.97R
PASCO           SUNNY       56  53  90  N5      29.99R
PROSSER AWOS    N/A         59  54  83  SW1     30.02R
RICHLAND AWOS   SUNNY       61  52  72  CALM    29.99R
#BASIN CITY 5SW N/A         62  50  65  CALM    29.98R
#BENTON CITY    N/A         62  54  75  CALM    29.86R
#CONNELL 5N     N/A         61  44  53  NE2     29.95R
#CONNELL 5NW    N/A         59  46  62  CALM    29.93R
#ELTOPIA 6NW    N/A         63  46  54  SE1     28.96R
#KENNEWICK 3S   N/A         66  47  50  CALM    29.95R
#PATERSON       N/A         60  50  69  CALM    29.96R
#PROSSER        N/A         69  49  49  CALM    29.95R
#SAGEMOOR 2W    N/A         65  48  54  CALM    29.81R
#TOUCHET 2S     N/A         51  46  83  CALM    29.96R
#WEST PASCO     N/A         58  50  75  CALM    29.97R
$$

WAZ029-271510-
FOOTHILLS OF THE BLUES...WASHINGTON

CITY            SKY/WX      TMP DP  RH  WIND    PRES   REMARKS
WALLA WALLA AP  SUNNY       70  43  38  E7      30.01R
#COLLEGE PLACE  N/A         61  48  62  CALM    29.99R
#DAYTON SCHOOL  N/A         62  40  44  N2      30.02R
#PLEASANT VIEW 1N/A         66  43  43  CALM    29.98R
#PRESCOTT       N/A         58  45  62  CALM    29.96R
#SUDBURY        N/A         59  N/A N/A NE5     N/A
#WHITMAN COLLEGEN/A         69  47  45  CALM    30.00R
#WAITSBURG 8N   N/A         63  37  38  CALM    29.94F
#WALLA WALLA 5E N/A         78  41  27  SW7     N/A
#WALLA WALLA U  N/A         62  50  65  CALM    29.96R
$$

WAZ030-271510-
BLUE MOUNTAINS...WASHINGTON

CITY            SKY/WX      TMP DP  RH  WIND    PRES   REMARKS
$$

ORZ009-041-WAZ024-271510-
COLUMBIA RIVER GORGE

CITY            SKY/WX      TMP DP  RH  WIND    PRES   REMARKS
HOOD RIVER AP   SUNNY       57  50  77  CALM    30.02R
THE DALLES AP   SUNNY       63  52  67  SE5     29.99R
#ARLINGTON AIRPON/A         68  50  53  W3      N/A
#ARLINGTON HS   N/A         65  46  50  CALM    29.87R
#MARYHILL 2W    N/A         68  58  70  CALM    N/A
#MOSIER 1S      N/A         65  48  54  CALM    30.03S
#MURDOCK        N/A         68  58  70  NW6     30.00R

$$

ORZ510-271510-
NORTH CENTRAL OREGON

CITY            SKY/WX      TMP DP  RH  WIND    PRES   REMARKS
#CHENOWITH 1W   N/A         61  52  72  W14     N/A
#COW CYN RST AREN/A         63  42  46  SW2     N/A
#GRASS VALLEY   N/A         60  43  53  S2      N/A
#GRASS VALLEY 1SN/A         60  44  55  S1      29.98R
#KENT DOT       N/A         60  37  42  SE6     N/A
#MAUPIN SCHOOL  N/A         61  49  65  CALM    28.92R
#MORO SCHOOL    N/A         60  50  69  CALM    30.05R
#SHANIKO 5WSW   N/A         64  42  45  S7      N/A
#SHANIKO 4NW    N/A         66  41  40  S7      30.14R
#TYGH VALLEY 2NEN/A         57  47  69  CALM    29.98R
#WAPANITIA AIRPON/A         58  45  62  CALM    29.98R
#WASCO DOT      N/A         57  49  75  CALM    N/A
#WASCO AIRPORT  N/A         64  46  52  SW1     N/A
#WASCO 5NE      N/A         62  47  58  CALM    29.96R
$$

ORZ511-271510-
CENTRAL OREGON

CITY            SKY/WX      TMP DP  RH  WIND    PRES   REMARKS
BEND AIRPORT    SUNNY       55  39  55  CALM    30.16R
MADRAS AIRPORT  SUNNY       54  43  66  SE5     30.12R
REDMOND AIRPORT SUNNY       51  36  56  CALM    30.13R
#BEND 6E        N/A         56  39  53  CALM    29.96R
#BEND-AWBREY    N/A         60  43  53  N6      29.98R
#BEND-KIM LN    N/A         57  44  62  S7      30.12R
#CROOKED RVR RANN/A         54  42  64  NW7     29.99R
#CULVER         N/A         55  45  69  CALM    30.07R
#LAKE BILLY CHINN/A         57  31  37  CALM    30.16R
#POWELL BUTTE   N/A         58  41  53  CALM    29.78R
#PRINEVILLE 3N  N/A         52  43  71  CALM    29.99R
#WARM SPRINGS   N/A         54  46  74  CALM    30.06R


ORZ509-271510-
EAST SLOPES OF OREGON CASCADES

CITY            SKY/WX      TMP DP  RH  WIND    PRES   REMARKS
#BLUE BOX PASS  N/A         60   7  12  CALM    N/A
#BLACK BUTTE RNCN/A         49  44  83  CALM    30.01R
#CAMP SHERMAN   N/A         42  38  86  CALM    30.06R
#LA PINE DOT    N/A         42  34  73  CALM    N/A
#LA PINE 4NW    N/A         36  31  82  CALM    30.11R
#LAVA BUTTE DOT N/A         48  40  74  CALM    N/A
#SISTERS AIRPOR N/A         46  42  86  CALM    30.11R
#SISTERS ODOT   N/A         46  N/A N/A CALM    N/A
#SISTERS 1NW    N/A         46  38  73  N7      N/A
#SISTERS 3N     N/A         45  32  60  CALM    N/A
#SUNRIVER       N/A         42  38  86  CALM    29.95R
#SUNRIVER AP    N/A         40  37  89  CALM    30.02
#TUMALO 3W      N/A         64  44  48  SW5     29.85S
#WANOGA BUTTE D N/A         60  37  42  W2      N/A

$$

ORZ044-271510-
LOWER COLUMBIA BASIN...OREGON

CITY            SKY/WX      TMP DP  RH  WIND    PRES   REMARKS
HERMISTON       SUNNY       58  47  67  CALM    30.00R
#BOARDMAN SCHOOLN/A         57  51  80  CALM    29.99R
#BOARDMAN 3W    N/A         60  55  84  S1      29.71R
#BOARDMAN 8SW   N/A         64  47  54  CALM    29.96R
#ECHO 8SW       N/A         58  46  64  CALM    29.97R
#IONE SCHOOL    N/A         62  46  56  CALM    30.01R
#IRRIGON 4NW    N/A         54  50  86  SE2     N/A
#UMATILLA SCHOOLN/A         56  53  90  SE2     30.03R
#UMATILLA       N/A         60  46  60  CALM    29.97R
$$

ORZ507-271510-
NORTHERN FOOTHILLS OF THE BLUES

CITY            SKY/WX      TMP DP  RH  WIND    PRES   REMARKS
PENDLETON AIRPT SUNNY       61  43  51  SE9     30.03R
#ADAMS 3WNW     N/A         54  40  59  CALM    29.98R
#ATHENA         N/A         67  45  45  CALM    29.98S
#HELIX SCHOOL   N/A         51  39  63  CALM    29.98R
#HELIX 3N       N/A         64  42  45  S6      30.01R
#HOLDMAN 5SE    N/A         63  44  50  CALM    30.03R
#HOLDMAN 6E     N/A         63  44  50  N1      29.78R
#M-F GROVE ELEM N/A         68  41  37  CALM    29.99R
#M-FREEWATER 5SEN/A         68  46  45  NE9     30.01S
#PENDLETON DNTN N/A         54  37  52  CALM    29.98S
#PDT SUNRIDGE   N/A         53  44  71  CALM    30.04R
#PENDLETON 7NW  N/A         59  47  64  CALM    N/A
#PILOT ROCK     N/A         67  41  39  S8      30.06R
#TUTUILLA       N/A         56  48  74  CALM    29.93R
#UMAPINE 2E     N/A         58  51  77  CALM    29.96R
#WESTON SCHOOL  N/A         71  37  29  W2      30.00R

$$

ORZ508-271510-
SOUTHERN FOOTHILLS OF THE BLUES

CITY            SKY/WX      TMP DP  RH  WIND    PRES   REMARKS
LEXINGTON       SUNNY       68  45  44  E12     30.06R
#AJAX           N/A         67  38  34  S6      29.99R
#CONDON SCHOOL  N/A         61  41  48  CALM    30.06R
#FOSSIL SCHOOL  N/A         54  41  61  CALM    30.07R
#HEPPNER EOC    N/A         62  47  58  E7      29.93R
#HEPPNER 4NE    N/A         67  44  43  CALM    29.96R
#LEXINGTON 2SE  N/A         62  48  60  SE9     30.01R
#MIKKALO        N/A         71  45  39  S2      30.04R
#OLEX 4N        N/A         65  45  48  SW1     29.99R
#RUGGS 5NE      N/A         66  46  48  CALM    30.27R
#RUGGS 2SW      N/A         67  42  40  SW13    30.01R

$$

ORZ502-503-271510-
BLUE MOUNTAINS

CITY            SKY/WX      TMP DP  RH  WIND    PRES   REMARKS
MEACHAM         SUNNY       41  38  89  CALM    30.16R
#BATTLE MTN DOT N/A         49  43  80  S6      N/A
#HARDMAN 10S    N/A         57  40  53  CALM    30.21R
#HEPPNER 15SE   N/A         53  48  83  CALM    30.08R
#LADD CYN SMT   N/A         46  37  71  CALM    N/A
#LADD CREEK ODOTN/A         49  41  74  S3      N/A
#LONG CREEK HS  N/A         53  43  69  CALM    N/A
#N POWDER DOT   N/A         43  42  96  W2      N/A
#PIKES PEAK     N/A         71  40  32  S6      27.99S
#TOLLGATE       N/A         55  43  64  CALM    30.11S
#TROY SCHOOL    N/A         51  46  83  CALM    29.92R
#UKIAH          N/A         38  36  92  CALM    30.14R
#WESTON 4E      N/A         64  42  45  E5      29.90R
$$

ORZ505-271510-
JOHN DAY BASIN

CITY            SKY/WX      TMP DP  RH  WIND    PRES   REMARKS
JOHN DAY        SUNNY       57  36  45  E9      30.18R
#JOHN DAY KJDY  N/A         48  39  71  N1      30.24R
#MONUMENT HS    N/A         48  40  74  CALM    30.14R
#MT. VERNON 5SE N/A         60  36  41  CALM    30.14R
#WINLOCK        N/A         59  43  55  CALM    30.21R
$$

ORZ506-271510-
OCHOCO AND JOHN DAY HIGHLANDS

CITY            SKY/WX      TMP DP  RH  WIND    PRES   REMARKS
#BUCK CREEK DOT N/A         58  40  51  CALM    N/A
#HORSE RIDGE DO N/A         36  24  61  SW9     N/A
#KEYES SMT DOT  N/A         54  36  50  E6      N/A
#PAULINA SCHOOL N/A         41  36  82  CALM    30.16R
#PINE MTN OBS   N/A         61  39  44  NW2     N/A
#PRAIRIE CITY   N/A         42  38  86  CALM    30.27S
#SENECA 9NW     N/A         34  28  78  CALM    30.08R
$$

ORZ049-271510-
GRANDE RONDE VALLEY

CITY            SKY/WX      TMP DP  RH  WIND    PRES   REMARKS
LA GRANDE       SUNNY       54  36  50  CALM    30.14R
#COVE           N/A         48  44  86  CALM    30.05R
#COVE SCHOOL    N/A         48  43  83  CALM    30.11R
#COVE 6NW       N/A         42  39  89  CALM    30.10R
#ELGIN 3N       N/A         49  42  77  CALM    29.87R
#ELGIN 1E       N/A         45  40  82  CALM    N/A
#IMBLER SCHOOL  N/A         51  44  77  N2      30.10R
#ISLAND CITY 4N N/A         48  43  83  CALM    29.99R
#LADD CYN DOT   N/A         55  41  59  SE6     N/A
#LA GRANDE ELEM N/A         56  44  64  CALM    30.12R
#UNION 1S       N/A         48  43  83  CALM    29.96R
$$

ORZ050-271510-
WALLOWA COUNTY

CITY            SKY/WX      TMP DP  RH  WIND    PRES   REMARKS
JOSEPH AIRPORT  SUNNY       52  43  71  CALM    30.19R
#ENTERPRISE AP  N/A         50  39  66  CALM    30.09R
#ENTERPRISE HS  N/A         44  42  93  CALM    30.17R
#IMNAHA SCHOOL  N/A         52  45  77  CALM    30.10R
#IMNAHA 10S     N/A         55  42  61  SW3     30.12R
#JOSEPH 3N      N/A         43  38  82  NE1     30.17R
#JOSEPH 3W      N/A         60  45  58  CALM    30.02R
#MT HOWARD 8000 N/A         53  34  48  CALM    30.39R
#PROMISE 1S     N/A         51  41  68  CALM    30.12R
#SHEEP RDG 7000 N/A         58  36  44  CALM    30.01R
#WALLOWA SCHOOL N/A         45  43  93  CALM    30.98R



$$



USA.gov is the U.S. government's official web portal to all federal, state and local government web resources and services.